,,,PA_Meas_PMT16A,,PR_Meas_QMR101_102,,RH_Meas_QMH101,,SR_Meas_QMS101,,TA_Meas_QMH101,,GenWind,,GenWind,
date,time,status,PA,status,PR,status,RH,status,SR,status,TA,status,DirAvg,status,SpdAvg,
2009-04-25, 00:00:04,VALID,1010.92,VALID,0,VALID,4,VALID,0,VALID,23.4992,VALID,52,VALID,0,
2009-04-25, 00:01:04,VALID,1010.93,VALID,0,VALID,4,VALID,0,VALID,23.4974,VALID,46,VALID,0,
2009-04-25, 00:02:04,VALID,1010.9,VALID,0,VALID,4,VALID,0,VALID,23.4992,VALID,46,VALID,0,
2009-04-25, 00:03:04,VALID,1010.87,VALID,0,VALID,4,VALID,0,VALID,23.4992,VALID,46,VALID,0,
2009-04-25, 00:04:04,VALID,1010.85,VALID,0,VALID,4,VALID,0,VALID,23.4992,VALID,46,VALID,0,
2009-04-25, 00:05:04,VALID,1010.84,VALID,0,VALID,4,VALID,0,VALID,23.4797,VALID,46,VALID,0,
2009-04-25, 00:06:04,VALID,1010.81,VALID,0,VALID,4,VALID,0,VALID,23.4797,VALID,46,VALID,0,
2009-04-25, 00:07:04,VALID,1010.82,VALID,0,VALID,4,VALID,0,VALID,23.4602,VALID,46,VALID,0,
2009-04-25, 00:08:04,VALID,1010.79,VALID,0,VALID,4,VALID,0,VALID,23.4602,VALID,46,VALID,0,
2009-04-25, 00:09:04,VALID,1010.79,VALID,0,VALID,4,VALID,0,VALID,23.4602,VALID,46,VALID,0,
2009-04-25, 00:10:04,VALID,1010.77,VALID,0,VALID,4,VALID,0,VALID,23.4584,VALID,46,VALID,0,
2009-04-25, 00:11:04,VALID,1010.76,VALID,0,VALID,4,VALID,0,VALID,23.4797,VALID,46,VALID,0,
2009-04-25, 00:12:04,VALID,1010.77,VALID,0,VALID,4,VALID,0,VALID,23.4389,VALID,38,VALID,0,
2009-04-25, 00:13:04,VALID,1010.77,VALID,0,VALID,4,VALID,0,VALID,23.4602,VALID,340,VALID,0,
2009-04-25, 00:14:04,VALID,1010.77,VALID,0,VALID,4,VALID,0,VALID,23.4797,VALID,340,VALID,0,
2009-04-25, 00:15:04,VALID,1010.73,VALID,0,VALID,4,VALID,0,VALID,23.4797,VALID,340,VALID,0,
2009-04-25, 00:16:04,VALID,1010.72,VALID,0,VALID,4,VALID,0,VALID,23.4992,VALID,340,VALID,0,
2009-04-25, 00:17:04,VALID,1010.73,VALID,0,VALID,4,VALID,0,VALID,23.4992,VALID,340,VALID,0,
2009-04-25, 00:18:04,VALID,1010.7,VALID,0,VALID,4,VALID,0,VALID,23.4992,VALID,340,VALID,0,
2009-04-25, 00:19:04,VALID,1010.68,VALID,0,VALID,4,VALID,0,VALID,23.4992,VALID,340,VALID,0,
2009-04-25, 00:20:04,VALID,1010.67,VALID,0,VALID,4,VALID,0,VALID,23.5204,VALID,340,VALID,0,
2009-04-25, 00:21:04,VALID,1010.69,VALID,0,VALID,4,VALID,0,VALID,23.5186,VALID,340,VALID,0,
2009-04-25, 00:22:04,VALID,1010.66,VALID,0,VALID,4,VALID,0,VALID,23.4992,VALID,340,VALID,0,
2009-04-25, 00:23:04,VALID,1010.69,VALID,0,VALID,4,VALID,0,VALID,23.5186,VALID,340,VALID,0,
2009-04-25, 00:24:04,VALID,1010.66,VALID,0,VALID,4,VALID,0,VALID,23.5399,VALID,340,VALID,0,
2009-04-25, 00:25:04,VALID,1010.67,VALID,0,VALID,4,VALID,0,VALID,23.5186,VALID,340,VALID,0,
2009-04-25, 00:26:04,VALID,1010.69,VALID,0,VALID,4,VALID,0,VALID,23.5186,VALID,340,VALID,0,
2009-04-25, 00:27:04,VALID,1010.66,VALID,0,VALID,4,VALID,0,VALID,23.5186,VALID,340,VALID,0,
2009-04-25, 00:28:04,VALID,1010.68,VALID,0,VALID,4,VALID,0,VALID,23.5381,VALID,340,VALID,0,
2009-04-25, 00:29:04,VALID,1010.7,VALID,0,VALID,4,VALID,0,VALID,23.5381,VALID,340,VALID,0,
2009-04-25, 00:30:04,VALID,1010.68,VALID,0,VALID,4,VALID,0,VALID,23.5186,VALID,340,VALID,0,
2009-04-25, 00:31:04,VALID,1010.66,VALID,0,VALID,4,VALID,0,VALID,23.4992,VALID,340,VALID,0,
2009-04-25, 00:32:04,VALID,1010.67,VALID,0,VALID,4,VALID,0,VALID,23.4797,VALID,340,VALID,0,
2009-04-25, 00:33:04,VALID,1010.62,VALID,0,VALID,4,VALID,0,VALID,23.4992,VALID,340,VALID,0,
2009-04-25, 00:34:04,VALID,1010.64,VALID,0,VALID,4,VALID,0,VALID,23.4797,VALID,340,VALID,0,
2009-04-25, 00:35:04,VALID,1010.64,VALID,0,VALID,4,VALID,0,VALID,23.4797,VALID,340,VALID,0,
2009-04-25, 00:36:04,VALID,1010.66,VALID,0,VALID,4,VALID,0,VALID,23.4797,VALID,340,VALID,0,
2009-04-25, 00:37:04,VALID,1010.64,VALID,0,VALID,4,VALID,0,VALID,23.4797,VALID,340,VALID,0,
2009-04-25, 00:38:04,VALID,1010.65,VALID,0,VALID,4,VALID,0,VALID,23.4797,VALID,340,VALID,0,
2009-04-25, 00:39:04,VALID,1010.65,VALID,0,VALID,4,VALID,0,VALID,23.4797,VALID,340,VALID,0,
2009-04-25, 00:40:04,VALID,1010.67,VALID,0,VALID,4,VALID,0,VALID,23.4797,VALID,340,VALID,0,
2009-04-25, 00:41:04,VALID,1010.66,VALID,0,VALID,4,VALID,0,VALID,23.4407,VALID,340,VALID,0,
2009-04-25, 00:42:04,VALID,1010.66,VALID,0,VALID,4,VALID,0,VALID,23.4212,VALID,340,VALID,0,
2009-04-25, 00:43:04,VALID,1010.66,VALID,0,VALID,4,VALID,0,VALID,23.4017,VALID,340,VALID,0,
2009-04-25, 00:44:04,VALID,1010.67,VALID,0,VALID,4,VALID,0,VALID,23.4017,VALID,340,VALID,0,
2009-04-25, 00:45:04,VALID,1010.65,VALID,0,VALID,4,VALID,0,VALID,23.4017,VALID,340,VALID,0,
2009-04-25, 00:46:04,VALID,1010.67,VALID,0,VALID,4,VALID,0,VALID,23.4017,VALID,340,VALID,0,
2009-04-25, 00:47:04,VALID,1010.64,VALID,0,VALID,4,VALID,0,VALID,23.3823,VALID,340,VALID,0,
2009-04-25, 00:48:04,VALID,1010.65,VALID,0,VALID,4,VALID,0,VALID,23.3805,VALID,340,VALID,0,
2009-04-25, 00:49:04,VALID,1010.62,VALID,0,VALID,4,VALID,0,VALID,23.4212,VALID,340,VALID,0,
2009-04-25, 00:50:04,VALID,1010.56,VALID,0,VALID,4,VALID,0,VALID,23.4407,VALID,340,VALID,0,
2009-04-25, 00:51:04,VALID,1010.53,VALID,0,VALID,4,VALID,0,VALID,23.4602,VALID,340,VALID,0,
2009-04-25, 00:52:04,VALID,1010.52,VALID,0,VALID,4,VALID,0,VALID,23.4797,VALID,340,VALID,0,
2009-04-25, 00:53:04,VALID,1010.48,VALID,0,VALID,4,VALID,0,VALID,23.4992,VALID,340,VALID,0,
2009-04-25, 00:54:04,VALID,1010.47,VALID,0,VALID,4,VALID,0,VALID,23.4992,VALID,340,VALID,0,
2009-04-25, 00:55:04,VALID,1010.47,VALID,0,VALID,4,VALID,0,VALID,23.4992,VALID,340,VALID,0,
2009-04-25, 00:56:04,VALID,1010.46,VALID,0,VALID,4,VALID,0,VALID,23.4992,VALID,340,VALID,0,
2009-04-25, 00:57:04,VALID,1010.51,VALID,0,VALID,4,VALID,0,VALID,23.4602,VALID,340,VALID,0,
2009-04-25, 00:58:04,VALID,1010.52,VALID,0,VALID,4,VALID,0,VALID,23.4407,VALID,340,VALID,0,
2009-04-25, 00:59:04,VALID,1010.49,VALID,0,VALID,4,VALID,0,VALID,23.4017,VALID,340,VALID,0,
2009-04-25, 01:00:04,VALID,1010.48,VALID,0,VALID,4,VALID,0,VALID,23.3823,VALID,340,VALID,0,
2009-04-25, 01:01:04,VALID,1010.47,VALID,0,VALID,4,VALID,0,VALID,23.3628,VALID,340,VALID,0,
2009-04-25, 01:02:04,VALID,1010.48,VALID,0,VALID,4,VALID,0,VALID,23.3628,VALID,340,VALID,0,
2009-04-25, 01:03:04,VALID,1010.46,VALID,0,VALID,4,VALID,0,VALID,23.3433,VALID,340,VALID,0,
2009-04-25, 01:04:04,VALID,1010.44,VALID,0,VALID,4,VALID,0,VALID,23.3238,VALID,340,VALID,0,
2009-04-25, 01:05:04,VALID,1010.42,VALID,0,VALID,4,VALID,0,VALID,23.3043,VALID,340,VALID,0,
2009-04-25, 01:06:04,VALID,1010.38,VALID,0,VALID,4,VALID,0,VALID,23.2848,VALID,115,VALID,0,
2009-04-25, 01:07:04,VALID,1010.35,VALID,0,VALID,4,VALID,0,VALID,23.2848,VALID,126,VALID,0,
2009-04-25, 01:08:04,VALID,1010.34,VALID,0,VALID,4,VALID,0,VALID,23.3043,VALID,118,VALID,0,
2009-04-25, 01:09:04,VALID,1010.31,VALID,0,VALID,4,VALID,0,VALID,23.3628,VALID,107,VALID,0,
2009-04-25, 01:10:04,VALID,1010.32,VALID,0,VALID,4,VALID,0,VALID,23.4017,VALID,107,VALID,0,
2009-04-25, 01:11:04,VALID,1010.34,VALID,0,VALID,4,VALID,0,VALID,23.4425,VALID,107,VALID,0,
2009-04-25, 01:12:04,VALID,1010.32,VALID,0,VALID,4,VALID,0,VALID,23.4407,VALID,107,VALID,0,
2009-04-25, 01:13:04,VALID,1010.33,VALID,0,VALID,4,VALID,0,VALID,23.4602,VALID,107,VALID,0,
2009-04-25, 01:14:04,VALID,1010.31,VALID,0,VALID,4,VALID,0.105969,VALID,23.4797,VALID,93,VALID,0,
2009-04-25, 01:15:04,VALID,1010.32,VALID,0,VALID,4,VALID,0.105969,VALID,23.4779,VALID,93,VALID,0,
2009-04-25, 01:16:04,VALID,1010.3,VALID,0,VALID,4,VALID,0.105969,VALID,23.4779,VALID,93,VALID,0,
2009-04-25, 01:17:04,VALID,1010.33,VALID,0,VALID,4,VALID,0.105969,VALID,23.4761,VALID,90,VALID,0,
2009-04-25, 01:18:04,VALID,1010.32,VALID,0,VALID,4,VALID,0,VALID,23.4779,VALID,90,VALID,0,
2009-04-25, 01:19:04,VALID,1010.29,VALID,0,VALID,4,VALID,0.105969,VALID,23.4992,VALID,90,VALID,0,
2009-04-25, 01:20:04,VALID,1010.27,VALID,0,VALID,4,VALID,0.105969,VALID,23.4584,VALID,90,VALID,0,
2009-04-25, 01:21:04,VALID,1010.28,VALID,0,VALID,4,VALID,0.105969,VALID,23.4372,VALID,90,VALID,0,
2009-04-25, 01:22:04,VALID,1010.23,VALID,0,VALID,4,VALID,0.105969,VALID,23.4584,VALID,90,VALID,0,
2009-04-25, 01:23:04,VALID,1010.23,VALID,0,VALID,4,VALID,0.105969,VALID,23.4779,VALID,90,VALID,0,
2009-04-25, 01:24:04,VALID,1010.21,VALID,0,VALID,4,VALID,0.105969,VALID,23.4584,VALID,90,VALID,0,
2009-04-25, 01:25:04,VALID,1010.22,VALID,0,VALID,4,VALID,0.105969,VALID,23.4584,VALID,90,VALID,0,
2009-04-25, 01:26:04,VALID,1010.23,VALID,0,VALID,4,VALID,0.105969,VALID,23.4779,VALID,90,VALID,0,
2009-04-25, 01:27:04,VALID,1010.26,VALID,0,VALID,4,VALID,0,VALID,23.4779,VALID,90,VALID,0,
2009-04-25, 01:28:04,VALID,1010.26,VALID,0,VALID,4,VALID,0.105969,VALID,23.4779,VALID,90,VALID,0,
2009-04-25, 01:29:04,VALID,1010.25,VALID,0,VALID,4,VALID,0,VALID,23.4797,VALID,90,VALID,0,
2009-04-25, 01:30:04,VALID,1010.23,VALID,0,VALID,4,VALID,0,VALID,23.4602,VALID,90,VALID,0,
2009-04-25, 01:31:04,VALID,1010.22,VALID,0,VALID,4,VALID,0,VALID,23.4602,VALID,90,VALID,0,
2009-04-25, 01:32:04,VALID,1010.21,VALID,0,VALID,4,VALID,0,VALID,23.4389,VALID,81,VALID,0,
2009-04-25, 01:33:04,VALID,1010.22,VALID,0,VALID,4,VALID,0,VALID,23.4602,VALID,83,VALID,0,
2009-04-25, 01:34:04,VALID,1010.2,VALID,0,VALID,4,VALID,0,VALID,23.4602,VALID,83,VALID,0,
2009-04-25, 01:35:04,VALID,1010.19,VALID,0,VALID,4,VALID,0,VALID,23.4584,VALID,83,VALID,0,
2009-04-25, 01:36:04,VALID,1010.19,VALID,0,VALID,4,VALID,0,VALID,23.4797,VALID,83,VALID,0,
2009-04-25, 01:37:04,VALID,1010.17,VALID,0,VALID,4,VALID,0,VALID,23.4602,VALID,83,VALID,0,
2009-04-25, 01:38:04,VALID,1010.18,VALID,0,VALID,4,VALID,0,VALID,23.4602,VALID,83,VALID,0,
2009-04-25, 01:39:04,VALID,1010.17,VALID,0,VALID,4,VALID,0,VALID,23.4602,VALID,83,VALID,0,
2009-04-25, 01:40:04,VALID,1010.16,VALID,0,VALID,4,VALID,0,VALID,23.4407,VALID,79,VALID,0.0492188,
2009-04-25, 01:41:04,VALID,1010.15,VALID,0,VALID,4,VALID,0,VALID,23.4602,VALID,69,VALID,0.369531,
2009-04-25, 01:42:04,VALID,1010.15,VALID,0,VALID,4,VALID,0,VALID,23.4407,VALID,68,VALID,0.222266,
2009-04-25, 01:43:04,VALID,1010.15,VALID,0,VALID,4,VALID,0,VALID,23.4407,VALID,57,VALID,0.0953125,
2009-04-25, 01:44:04,VALID,1010.15,VALID,0,VALID,4,VALID,0,VALID,23.4407,VALID,56,VALID,0,
2009-04-25, 01:45:04,VALID,1010.15,VALID,0,VALID,4,VALID,0,VALID,23.4212,VALID,56,VALID,0,
2009-04-25, 01:46:04,VALID,1010.15,VALID,0,VALID,4,VALID,0,VALID,23.4017,VALID,56,VALID,0,
2009-04-25, 01:47:04,VALID,1010.16,VALID,0,VALID,4,VALID,0,VALID,23.4035,VALID,56,VALID,0.159375,
2009-04-25, 01:48:04,VALID,1010.13,VALID,0,VALID,4,VALID,0,VALID,23.3823,VALID,56,VALID,0,
2009-04-25, 01:49:04,VALID,1010.13,VALID,0,VALID,4,VALID,0,VALID,23.3823,VALID,56,VALID,0,
2009-04-25, 01:50:04,VALID,1010.12,VALID,0,VALID,4,VALID,0,VALID,23.3628,VALID,56,VALID,0.174219,
2009-04-25, 01:51:04,VALID,1010.12,VALID,0,VALID,4,VALID,0,VALID,23.3628,VALID,56,VALID,0.107031,
2009-04-25, 01:52:04,VALID,1010.08,VALID,0,VALID,4,VALID,0,VALID,23.3628,VALID,57,VALID,0.330469,
2009-04-25, 01:53:04,VALID,1010.08,VALID,0,VALID,4,VALID,0,VALID,23.3433,VALID,57,VALID,0,
2009-04-25, 01:54:04,VALID,1010.11,VALID,0,VALID,4,VALID,0,VALID,23.3043,VALID,56,VALID,0,
2009-04-25, 01:55:04,VALID,1010.09,VALID,0,VALID,4,VALID,0,VALID,23.3043,VALID,56,VALID,0,
2009-04-25, 01:56:04,VALID,1010.07,VALID,0,VALID,4,VALID,0,VALID,23.3043,VALID,56,VALID,0,
2009-04-25, 01:57:04,VALID,1010.09,VALID,0,VALID,4,VALID,0,VALID,23.3043,VALID,57,VALID,0,
2009-04-25, 01:58:04,VALID,1010.06,VALID,0,VALID,4,VALID,0,VALID,23.2831,VALID,57,VALID,0,
2009-04-25, 01:59:04,VALID,1010.03,VALID,0,VALID,4,VALID,0,VALID,23.3238,VALID,57,VALID,0,
2009-04-25, 02:00:04,VALID,1010.01,VALID,0,VALID,4,VALID,0,VALID,23.3451,VALID,57,VALID,0,
2009-04-25, 02:01:04,VALID,1009.97,VALID,0,VALID,4,VALID,0,VALID,23.3238,VALID,57,VALID,0,
2009-04-25, 02:02:04,VALID,1009.93,VALID,0,VALID,4,VALID,0,VALID,23.3043,VALID,57,VALID,0,
2009-04-25, 02:03:04,VALID,1009.91,VALID,0,VALID,4,VALID,0,VALID,23.2848,VALID,57,VALID,0,
2009-04-25, 02:04:04,VALID,1009.89,VALID,0,VALID,4,VALID,0,VALID,23.2848,VALID,57,VALID,0,
2009-04-25, 02:05:04,VALID,1009.89,VALID,0,VALID,4,VALID,0,VALID,23.2654,VALID,57,VALID,0,
2009-04-25, 02:06:04,VALID,1009.86,VALID,0,VALID,4,VALID,0,VALID,23.2654,VALID,57,VALID,0,
2009-04-25, 02:07:04,VALID,1009.85,VALID,0,VALID,4,VALID,0,VALID,23.2459,VALID,56,VALID,0,
2009-04-25, 02:08:04,VALID,1009.88,VALID,0,VALID,4,VALID,0,VALID,23.2459,VALID,56,VALID,0.195313,
2009-04-25, 02:09:04,VALID,1009.85,VALID,0,VALID,4,VALID,0,VALID,23.2459,VALID,57,VALID,0.0839844,
2009-04-25, 02:10:04,VALID,1009.85,VALID,0,VALID,4,VALID,0,VALID,23.2654,VALID,56,VALID,0,
2009-04-25, 02:11:04,VALID,1009.83,VALID,0,VALID,4,VALID,0,VALID,23.2654,VALID,56,VALID,0.00429688,
2009-04-25, 02:12:04,VALID,1009.8,VALID,0,VALID,4,VALID,0,VALID,23.2459,VALID,57,VALID,0,
2009-04-25, 02:13:04,VALID,1009.79,VALID,0,VALID,4,VALID,0,VALID,23.2264,VALID,56,VALID,0,
2009-04-25, 02:14:04,VALID,1009.74,VALID,0,VALID,4,VALID,0,VALID,23.2246,VALID,56,VALID,0,
2009-04-25, 02:15:04,VALID,1009.71,VALID,0,VALID,4,VALID,0.105969,VALID,23.2051,VALID,57,VALID,0,
2009-04-25, 02:16:04,VALID,1009.71,VALID,0,VALID,4,VALID,0.105969,VALID,23.2264,VALID,57,VALID,0,
2009-04-25, 02:17:04,VALID,1009.7,VALID,0,VALID,4,VALID,0,VALID,23.2051,VALID,57,VALID,0,
2009-04-25, 02:18:04,VALID,1009.76,VALID,0,VALID,4,VALID,0,VALID,23.1857,VALID,57,VALID,0,
2009-04-25, 02:19:04,VALID,1009.77,VALID,0,VALID,4,VALID,0.105969,VALID,23.2051,VALID,57,VALID,0,
2009-04-25, 02:20:04,VALID,1009.77,VALID,0,VALID,4,VALID,0.105969,VALID,23.1857,VALID,57,VALID,0,
2009-04-25, 02:21:04,VALID,1009.74,VALID,0,VALID,4,VALID,0,VALID,23.1857,VALID,57,VALID,0,
2009-04-25, 02:22:04,VALID,1009.76,VALID,0,VALID,4,VALID,0,VALID,23.1857,VALID,57,VALID,0,
2009-04-25, 02:23:04,VALID,1009.77,VALID,0,VALID,4,VALID,0,VALID,23.1662,VALID,57,VALID,0,
2009-04-25, 02:24:04,VALID,1009.75,VALID,0,VALID,4,VALID,0.105969,VALID,23.1857,VALID,57,VALID,0,
2009-04-25, 02:25:04,VALID,1009.7,VALID,0,VALID,4,VALID,0,VALID,23.2051,VALID,57,VALID,0,
2009-04-25, 02:26:04,VALID,1009.71,VALID,0,VALID,4,VALID,0,VALID,23.2459,VALID,56,VALID,0,
2009-04-25, 02:27:04,VALID,1009.7,VALID,0,VALID,4,VALID,0,VALID,23.2441,VALID,56,VALID,0,
2009-04-25, 02:28:04,VALID,1009.72,VALID,0,VALID,4,VALID,0.105969,VALID,23.2636,VALID,56,VALID,0,
2009-04-25, 02:29:04,VALID,1009.71,VALID,0,VALID,4,VALID,0,VALID,23.2636,VALID,57,VALID,0,
2009-04-25, 02:30:04,VALID,1009.72,VALID,0,VALID,4,VALID,0,VALID,23.2636,VALID,57,VALID,0,
2009-04-25, 02:31:04,VALID,1009.71,VALID,0,VALID,4,VALID,0,VALID,23.2636,VALID,57,VALID,0,
2009-04-25, 02:32:04,VALID,1009.72,VALID,0,VALID,4,VALID,0,VALID,23.2636,VALID,56,VALID,0,
2009-04-25, 02:33:04,VALID,1009.71,VALID,0,VALID,4,VALID,0,VALID,23.2441,VALID,57,VALID,0,
2009-04-25, 02:34:04,VALID,1009.72,VALID,0,VALID,4,VALID,0,VALID,23.2441,VALID,57,VALID,0,
2009-04-25, 02:35:04,VALID,1009.71,VALID,0,VALID,4,VALID,0,VALID,23.2441,VALID,55,VALID,0,
2009-04-25, 02:36:04,VALID,1009.67,VALID,0,VALID,4,VALID,0.105969,VALID,23.2034,VALID,48,VALID,0,
2009-04-25, 02:37:04,VALID,1009.69,VALID,0,VALID,4,VALID,0,VALID,23.1662,VALID,48,VALID,0.432031,
2009-04-25, 02:38:04,VALID,1009.72,VALID,0,VALID,4,VALID,0.105969,VALID,23.1662,VALID,48,VALID,0.303125,
2009-04-25, 02:39:04,VALID,1009.71,VALID,0,VALID,4,VALID,0,VALID,23.1467,VALID,48,VALID,0,
2009-04-25, 02:40:04,VALID,1009.7,VALID,0,VALID,4,VALID,0,VALID,23.1662,VALID,48,VALID,0,
2009-04-25, 02:41:04,VALID,1009.71,VALID,0,VALID,4,VALID,0,VALID,23.1467,VALID,48,VALID,0,
2009-04-25, 02:42:04,VALID,1009.73,VALID,0,VALID,4,VALID,0,VALID,23.1467,VALID,48,VALID,0,
2009-04-25, 02:43:04,VALID,1009.72,VALID,0,VALID,4,VALID,0.105969,VALID,23.1467,VALID,48,VALID,0,
2009-04-25, 02:44:04,VALID,1009.72,VALID,0,VALID,4,VALID,0,VALID,23.1679,VALID,48,VALID,0,
2009-04-25, 02:45:04,VALID,1009.72,VALID,0,VALID,4,VALID,0,VALID,23.1485,VALID,48,VALID,0,
2009-04-25, 02:46:04,VALID,1009.73,VALID,0,VALID,4,VALID,0,VALID,23.1679,VALID,48,VALID,0,
2009-04-25, 02:47:04,VALID,1009.74,VALID,0,VALID,4,VALID,0,VALID,23.1485,VALID,48,VALID,0,
2009-04-25, 02:48:04,VALID,1009.72,VALID,0,VALID,4,VALID,0,VALID,23.1095,VALID,48,VALID,0,
2009-04-25, 02:49:04,VALID,1009.72,VALID,0,VALID,4,VALID,0,VALID,23.1112,VALID,48,VALID,0,
2009-04-25, 02:50:04,VALID,1009.75,VALID,0,VALID,4,VALID,0,VALID,23.0918,VALID,48,VALID,0,
2009-04-25, 02:51:04,VALID,1009.72,VALID,0,VALID,4,VALID,0,VALID,23.0511,VALID,43,VALID,0,
2009-04-25, 02:52:04,VALID,1009.7,VALID,0,VALID,4,VALID,0,VALID,23.0511,VALID,43,VALID,0,
2009-04-25, 02:53:04,VALID,1009.69,VALID,0,VALID,4,VALID,0,VALID,23.0316,VALID,43,VALID,0,
2009-04-25, 02:54:04,VALID,1009.71,VALID,0,VALID,4,VALID,0,VALID,22.9926,VALID,43,VALID,0,
2009-04-25, 02:55:04,VALID,1009.71,VALID,0,VALID,4,VALID,0,VALID,22.9731,VALID,43,VALID,0,
2009-04-25, 02:56:04,VALID,1009.72,VALID,0,VALID,4,VALID,0,VALID,22.9536,VALID,43,VALID,0,
2009-04-25, 02:57:04,VALID,1009.72,VALID,0,VALID,4,VALID,0,VALID,22.9342,VALID,43,VALID,0,
2009-04-25, 02:58:04,VALID,1009.73,VALID,0,VALID,4,VALID,0,VALID,22.9147,VALID,43,VALID,0,
2009-04-25, 02:59:04,VALID,1009.74,VALID,0,VALID,4,VALID,0,VALID,22.9129,VALID,43,VALID,0,
2009-04-25, 03:00:04,VALID,1009.76,VALID,0,VALID,4,VALID,0,VALID,22.9129,VALID,43,VALID,0,
2009-04-25, 03:01:04,VALID,1009.77,VALID,0,VALID,4,VALID,0,VALID,22.9129,VALID,43,VALID,0,
2009-04-25, 03:02:04,VALID,1009.78,VALID,0,VALID,4,VALID,0,VALID,22.8935,VALID,43,VALID,0,
2009-04-25, 03:03:04,VALID,1009.77,VALID,0,VALID,4,VALID,0.105969,VALID,22.8935,VALID,43,VALID,0,
2009-04-25, 03:04:04,VALID,1009.74,VALID,0,VALID,4,VALID,0.105969,VALID,22.9129,VALID,43,VALID,0,
2009-04-25, 03:05:04,VALID,1009.7,VALID,0,VALID,4,VALID,0,VALID,22.9129,VALID,43,VALID,0,
2009-04-25, 03:06:04,VALID,1009.67,VALID,0,VALID,4,VALID,0,VALID,22.9129,VALID,43,VALID,0,
2009-04-25, 03:07:04,VALID,1009.69,VALID,0,VALID,4,VALID,0,VALID,22.8935,VALID,43,VALID,0,
2009-04-25, 03:08:04,VALID,1009.69,VALID,0,VALID,4,VALID,0,VALID,22.8935,VALID,43,VALID,0,
2009-04-25, 03:09:04,VALID,1009.7,VALID,0,VALID,4,VALID,0.105969,VALID,22.8935,VALID,43,VALID,0,
2009-04-25, 03:10:04,VALID,1009.67,VALID,0,VALID,4,VALID,0,VALID,22.874,VALID,43,VALID,0,
2009-04-25, 03:11:04,VALID,1009.66,VALID,0,VALID,4,VALID,0,VALID,22.8952,VALID,43,VALID,0,
2009-04-25, 03:12:04,VALID,1009.63,VALID,0,VALID,4,VALID,0.105969,VALID,22.8935,VALID,43,VALID,0,
2009-04-25, 03:13:05,VALID,1009.59,VALID,0,VALID,4,VALID,0.105969,VALID,22.8935,VALID,43,VALID,0,
2009-04-25, 03:14:05,VALID,1009.56,VALID,0,VALID,4,VALID,0,VALID,22.8935,VALID,43,VALID,0,
2009-04-25, 03:15:05,VALID,1009.58,VALID,0,VALID,4,VALID,0.105969,VALID,22.8935,VALID,43,VALID,0,
2009-04-25, 03:16:05,VALID,1009.58,VALID,0,VALID,4,VALID,0.105969,VALID,22.8935,VALID,43,VALID,0,
2009-04-25, 03:17:05,VALID,1009.62,VALID,0,VALID,4,VALID,0.105969,VALID,22.874,VALID,43,VALID,0,
2009-04-25, 03:18:05,VALID,1009.64,VALID,0,VALID,4,VALID,0,VALID,22.874,VALID,43,VALID,0,
2009-04-25, 03:19:05,VALID,1009.64,VALID,0,VALID,4,VALID,0,VALID,22.874,VALID,43,VALID,0,
2009-04-25, 03:20:05,VALID,1009.62,VALID,0,VALID,4,VALID,0.105969,VALID,22.8935,VALID,43,VALID,0,
2009-04-25, 03:21:05,VALID,1009.62,VALID,0,VALID,4,VALID,0.105969,VALID,22.874,VALID,43,VALID,0,
2009-04-25, 03:22:05,VALID,1009.61,VALID,0,VALID,4,VALID,0,VALID,22.8545,VALID,43,VALID,0,
2009-04-25, 03:23:05,VALID,1009.61,VALID,0,VALID,4,VALID,0,VALID,22.8757,VALID,43,VALID,0,
2009-04-25, 03:24:05,VALID,1009.64,VALID,0,VALID,4,VALID,0.105969,VALID,22.874,VALID,43,VALID,0,
2009-04-25, 03:25:05,VALID,1009.64,VALID,0,VALID,4,VALID,0,VALID,22.8545,VALID,43,VALID,0,
2009-04-25, 03:26:05,VALID,1009.66,VALID,0,VALID,4,VALID,0.105969,VALID,22.874,VALID,43,VALID,0,
2009-04-25, 03:27:05,VALID,1009.67,VALID,0,VALID,4,VALID,0,VALID,22.8935,VALID,43,VALID,0,
2009-04-25, 03:28:05,VALID,1009.67,VALID,0,VALID,4,VALID,0.105969,VALID,22.874,VALID,43,VALID,0,
2009-04-25, 03:29:05,VALID,1009.65,VALID,0,VALID,4,VALID,0,VALID,22.8545,VALID,43,VALID,0,
2009-04-25, 03:30:05,VALID,1009.67,VALID,0,VALID,4,VALID,0.105969,VALID,22.8528,VALID,43,VALID,0,
2009-04-25, 03:31:05,VALID,1009.69,VALID,0,VALID,4,VALID,0.105969,VALID,22.8333,VALID,43,VALID,0,
2009-04-25, 03:32:05,VALID,1009.69,VALID,0,VALID,4,VALID,0.105969,VALID,22.8545,VALID,43,VALID,0,
2009-04-25, 03:33:05,VALID,1009.73,VALID,0,VALID,4,VALID,0.105969,VALID,22.8545,VALID,43,VALID,0,
2009-04-25, 03:34:05,VALID,1009.76,VALID,0,VALID,4,VALID,0.105969,VALID,22.8528,VALID,43,VALID,0,
2009-04-25, 03:35:05,VALID,1009.77,VALID,0,VALID,4,VALID,0.105969,VALID,22.8545,VALID,43,VALID,0,
2009-04-25, 03:36:05,VALID,1009.76,VALID,0,VALID,4,VALID,0,VALID,22.8545,VALID,43,VALID,0,
2009-04-25, 03:37:05,VALID,1009.78,VALID,0,VALID,4,VALID,0.105969,VALID,22.8545,VALID,43,VALID,0,
2009-04-25, 03:38:05,VALID,1009.78,VALID,0,VALID,4,VALID,0.105969,VALID,22.835,VALID,43,VALID,0,
2009-04-25, 03:39:05,VALID,1009.79,VALID,0,VALID,4,VALID,0.105969,VALID,22.835,VALID,43,VALID,0,
2009-04-25, 03:40:05,VALID,1009.8,VALID,0,VALID,4,VALID,0.105969,VALID,22.7961,VALID,43,VALID,0,
2009-04-25, 03:41:05,VALID,1009.8,VALID,0,VALID,4,VALID,0,VALID,22.7961,VALID,43,VALID,0,
2009-04-25, 03:42:05,VALID,1009.79,VALID,0,VALID,4,VALID,0,VALID,22.8368,VALID,43,VALID,0,
2009-04-25, 03:43:05,VALID,1009.82,VALID,0,VALID,4,VALID,0.105969,VALID,22.835,VALID,43,VALID,0,
2009-04-25, 03:44:05,VALID,1009.84,VALID,0,VALID,4,VALID,0,VALID,22.8155,VALID,43,VALID,0,
2009-04-25, 03:45:05,VALID,1009.85,VALID,0,VALID,4,VALID,0.105969,VALID,22.835,VALID,43,VALID,0,
2009-04-25, 03:46:05,VALID,1009.85,VALID,0,VALID,4,VALID,0.105969,VALID,22.8155,VALID,43,VALID,0,
2009-04-25, 03:47:05,VALID,1009.84,VALID,0,VALID,4,VALID,0,VALID,22.7961,VALID,43,VALID,0,
2009-04-25, 03:48:05,VALID,1009.87,VALID,0,VALID,4,VALID,0,VALID,22.7766,VALID,43,VALID,0,
2009-04-25, 03:49:05,VALID,1009.88,VALID,0,VALID,4,VALID,0,VALID,22.7978,VALID,43,VALID,0,
2009-04-25, 03:50:05,VALID,1009.9,VALID,0,VALID,4,VALID,0,VALID,22.7961,VALID,43,VALID,0,
2009-04-25, 03:51:05,VALID,1009.89,VALID,0,VALID,4,VALID,0.105969,VALID,22.8155,VALID,43,VALID,0,
2009-04-25, 03:52:05,VALID,1009.88,VALID,0,VALID,4,VALID,0,VALID,22.7961,VALID,43,VALID,0,
2009-04-25, 03:53:05,VALID,1009.89,VALID,0,VALID,4,VALID,0.105969,VALID,22.7961,VALID,43,VALID,0,
2009-04-25, 03:54:05,VALID,1009.92,VALID,0,VALID,4,VALID,0.105969,VALID,22.7554,VALID,43,VALID,0,
2009-04-25, 03:55:05,VALID,1009.92,VALID,0,VALID,4,VALID,0.105969,VALID,22.7766,VALID,43,VALID,0,
2009-04-25, 03:56:05,VALID,1009.89,VALID,0,VALID,4,VALID,0.105969,VALID,22.7571,VALID,43,VALID,0,
2009-04-25, 03:57:05,VALID,1009.9,VALID,0,VALID,4,VALID,0.105969,VALID,22.7571,VALID,43,VALID,0,
2009-04-25, 03:58:05,VALID,1009.9,VALID,0,VALID,4,VALID,0.105969,VALID,22.7571,VALID,43,VALID,0,
2009-04-25, 03:59:05,VALID,1009.89,VALID,0,VALID,4,VALID,0,VALID,22.7376,VALID,43,VALID,0,
2009-04-25, 04:00:05,VALID,1009.9,VALID,0,VALID,4,VALID,0,VALID,22.7588,VALID,43,VALID,0,
2009-04-25, 04:01:05,VALID,1009.9,VALID,0,VALID,4,VALID,0,VALID,22.7394,VALID,43,VALID,0,
2009-04-25, 04:02:05,VALID,1009.93,VALID,0,VALID,4,VALID,0,VALID,22.7394,VALID,44,VALID,0,
2009-04-25, 04:03:05,VALID,1009.93,VALID,0,VALID,4,VALID,0,VALID,22.7588,VALID,43,VALID,0,
2009-04-25, 04:04:05,VALID,1009.94,VALID,0,VALID,4,VALID,0,VALID,22.7783,VALID,43,VALID,0,
2009-04-25, 04:05:05,VALID,1009.96,VALID,0,VALID,4,VALID,0,VALID,22.7978,VALID,43,VALID,0,
2009-04-25, 04:06:05,VALID,1009.97,VALID,0,VALID,4,VALID,0,VALID,22.7978,VALID,43,VALID,0,
2009-04-25, 04:07:05,VALID,1009.95,VALID,0,VALID,4,VALID,0,VALID,22.7978,VALID,43,VALID,0,
2009-04-25, 04:08:05,VALID,1009.93,VALID,0,VALID,4,VALID,0,VALID,22.8368,VALID,43,VALID,0,
2009-04-25, 04:09:05,VALID,1009.91,VALID,0,VALID,4,VALID,0,VALID,22.7961,VALID,43,VALID,0,
2009-04-25, 04:10:05,VALID,1009.91,VALID,0,VALID,4,VALID,0,VALID,22.7978,VALID,43,VALID,0,
2009-04-25, 04:11:05,VALID,1009.96,VALID,0,VALID,4,VALID,0,VALID,22.8173,VALID,43,VALID,0,
2009-04-25, 04:12:05,VALID,1009.96,VALID,0,VALID,4,VALID,0,VALID,22.7978,VALID,43,VALID,0,